Location: PSU-Greenbush Astrophysical Observatory
(37.5140°N, 94.9880°W)
Time: 17:39:57
(UTC-06:00)

deb Explorer IX - Pass Details

Date: 02 February 2020
Orbit: 549 x 1099 km, 38.8° (Epoch: 19 February)

Event Time Altitude Azimuth Distance (km) Brightness Sun altitude
Rises 18:54:30 0° 247° (WSW) 3,235 ? -14.1°
Reaches altitude 10° 18:56:49 10° 245° (WSW) 2,390 ? -14.6°
Maximum altitude 19:02:32 74° 162° (SSE) 940 ? -15.7°
Enters shadow 19:06:33 25° 81° (E) 1,850 ? -16.5°
Drops below altitude 10° 19:09:13 10° 78° (ENE) 2,774 - -17.0°
Sets 19:12:04 0° 77° (ENE) 3,790 - -17.6°
